CANDR21 LGKF-LGKF

Flight info

Callsign CANDR21
Flight time 0h 27m
Altitude 6000
Route VFR
Aircraft AT8T/L-V/N

Departure

Time 2026-05-06 20:23
Airport Kefallinia Airport (LGKF)

Arrival

Time 2026-05-06 20:50
Airport Kefallinia Airport (LGKF)
Time Latitude Longitude Altitude Speed Heading
2026-05-06 20:13 38.11824 20.50476 66 ft 0 kts 56°
2026-05-06 20:15 38.11825 20.50478 66 ft 1 kts 41°
2026-05-06 20:15 38.11827 20.50480 59 ft 2 kts 22°
2026-05-06 20:15 38.11834 20.50479 62 ft 3 kts 317°
2026-05-06 20:15 38.11835 20.50465 60 ft 6 kts 240°
2026-05-06 20:16 38.11828 20.50450 64 ft 9 kts 240°
2026-05-06 20:16 38.11808 20.50397 66 ft 14 kts 252°
2026-05-06 20:19 38.11806 20.50388 66 ft 15 kts 255°
2026-05-06 20:19 38.11778 20.50342 65 ft 1 kts 204°
2026-05-06 20:19 38.11777 20.50342 65 ft 1 kts 204°
2026-05-06 20:20 38.11776 20.50341 65 ft 0 kts 204°
2026-05-06 20:20 38.11760 20.50330 62 ft 6 kts 211°
2026-05-06 20:21 38.11740 20.50314 59 ft 7 kts 212°
2026-05-06 20:21 38.11733 20.50282 64 ft 5 kts 304°
2026-05-06 20:21 38.11755 20.50256 65 ft 0 kts 328°
2026-05-06 20:22 38.11870 20.50159 66 ft 68 kts 327°
2026-05-06 20:22 38.12418 20.49664 294 ft 114 kts 323°
2026-05-06 20:22 38.12545 20.49541 378 ft 116 kts 322°
2026-05-06 20:23 38.12773 20.49309 624 ft 113 kts 321°
2026-05-06 20:23 38.13162 20.48844 798 ft 125 kts 312°
2026-05-06 20:23 38.13332 20.48606 898 ft 127 kts 313°
2026-05-06 20:23 38.13365 20.48561 920 ft 127 kts 314°
2026-05-06 20:24 38.14042 20.47824 1269 ft 131 kts 320°
2026-05-06 20:24 38.14632 20.46912 1467 ft 130 kts 305°
2026-05-06 20:24 38.15113 20.45964 1538 ft 130 kts 298°
2026-05-06 20:24 38.15337 20.44862 1553 ft 132 kts 266°
2026-05-06 20:25 38.15381 20.43719 1569 ft 131 kts 295°
2026-05-06 20:25 38.15824 20.42724 1850 ft 129 kts 301°
2026-05-06 20:25 38.16324 20.41764 2217 ft 130 kts 305°
2026-05-06 20:25 38.16794 20.40886 2519 ft 130 kts 306°
2026-05-06 20:26 38.17314 20.39933 2647 ft 131 kts 306°
2026-05-06 20:26 38.17859 20.39017 2753 ft 132 kts 314°
2026-05-06 20:26 38.18582 20.38287 2884 ft 133 kts 328°
2026-05-06 20:26 38.19408 20.37755 2990 ft 135 kts 344°
2026-05-06 20:27 38.20350 20.37643 3077 ft 137 kts
2026-05-06 20:27 38.21296 20.37837 3153 ft 139 kts 14°
2026-05-06 20:27 38.22238 20.38162 3206 ft 139 kts 19°
2026-05-06 20:27 38.23148 20.38535 3267 ft 139 kts 22°
2026-05-06 20:28 38.24094 20.38831 3328 ft 140 kts 14°
2026-05-06 20:28 38.25009 20.39111 3438 ft 137 kts 14°
2026-05-06 20:28 38.25927 20.39395 3542 ft 136 kts 16°
2026-05-06 20:28 38.26804 20.39848 3654 ft 136 kts 33°
2026-05-06 20:29 38.27518 20.40627 3727 ft 138 kts 47°
2026-05-06 20:29 38.28122 20.41560 3808 ft 134 kts 62°
2026-05-06 20:29 38.28226 20.41963 3695 ft 121 kts 85°
2026-05-06 20:30 38.28163 20.42410 3301 ft 125 kts 113°
2026-05-06 20:30 38.26846 20.43804 1959 ft 125 kts 168°
2026-05-06 20:30 38.25952 20.44018 981 ft 136 kts 173°
2026-05-06 20:31 38.25055 20.44188 398 ft 122 kts 174°
2026-05-06 20:31 38.24272 20.44330 60 ft 106 kts 173°
2026-05-06 20:31 38.23639 20.44440 6 ft 76 kts 174°
2026-05-06 20:31 38.23199 20.44503 4 ft 62 kts 174°
2026-05-06 20:32 38.23118 20.44516 4 ft 77 kts 173°
2026-05-06 20:32 38.22425 20.44655 295 ft 115 kts 172°
2026-05-06 20:33 38.21832 20.45295 716 ft 125 kts 97°
2026-05-06 20:33 38.22344 20.46036 1169 ft 126 kts
2026-05-06 20:33 38.23181 20.45632 1431 ft 130 kts 332°
2026-05-06 20:33 38.23983 20.45087 1501 ft 131 kts 335°
2026-05-06 20:34 38.24781 20.44538 1581 ft 130 kts 328°
2026-05-06 20:34 38.25494 20.43829 1644 ft 130 kts 315°
2026-05-06 20:34 38.26058 20.42933 1666 ft 130 kts 307°
2026-05-06 20:34 38.26596 20.42007 1426 ft 128 kts 306°
2026-05-06 20:35 38.27082 20.41146 961 ft 116 kts 306°
2026-05-06 20:35 38.27569 20.40261 712 ft 135 kts 305°
2026-05-06 20:35 38.28096 20.39291 801 ft 128 kts 306°
2026-05-06 20:35 38.28348 20.38352 955 ft 120 kts 248°
2026-05-06 20:36 38.27892 20.38013 1050 ft 122 kts 175°
2026-05-06 20:36 38.27357 20.39244 915 ft 138 kts 101°
2026-05-06 20:36 38.27228 20.40459 786 ft 139 kts 99°
2026-05-06 20:36 38.27177 20.41638 834 ft 127 kts 64°
2026-05-06 20:37 38.27938 20.41925 934 ft 127 kts 327°
2026-05-06 20:37 38.28139 20.41285 1001 ft 126 kts 260°
2026-05-06 20:37 38.27815 20.40208 925 ft 133 kts 249°
2026-05-06 20:37 38.27453 20.39146 1066 ft 121 kts 249°
2026-05-06 20:38 38.27819 20.38342 1261 ft 120 kts 352°
2026-05-06 20:38 38.28381 20.38955 1287 ft 135 kts 101°
2026-05-06 20:38 38.28003 20.40086 953 ft 141 kts 103°
2026-05-06 20:38 38.27798 20.41273 556 ft 135 kts 105°
2026-05-06 20:39 38.27728 20.42347 820 ft 122 kts 62°
2026-05-06 20:39 38.28456 20.42496 914 ft 126 kts 312°
2026-05-06 20:39 38.28271 20.41517 851 ft 134 kts 227°
2026-05-06 20:39 38.27655 20.40677 540 ft 122 kts 229°
2026-05-06 20:40 38.27095 20.39933 809 ft 116 kts 210°
2026-05-06 20:40 38.26459 20.40344 868 ft 126 kts 115°
2026-05-06 20:40 38.26122 20.41331 1117 ft 120 kts 116°
2026-05-06 20:40 38.25786 20.42291 1369 ft 118 kts 116°
2026-05-06 20:41 38.25453 20.43239 1671 ft 115 kts 115°
2026-05-06 20:41 38.25120 20.44156 1929 ft 114 kts 121°
2026-05-06 20:41 38.24679 20.45009 2118 ft 118 kts 133°
2026-05-06 20:41 38.24093 20.45770 2272 ft 121 kts 140°
2026-05-06 20:42 38.23475 20.46509 2364 ft 127 kts 139°
2026-05-06 20:42 38.22809 20.47280 2425 ft 131 kts 140°
2026-05-06 20:42 38.22119 20.48067 2518 ft 135 kts 139°
2026-05-06 20:42 38.21427 20.48884 2600 ft 135 kts 139°
2026-05-06 20:43 38.20737 20.49701 2685 ft 136 kts 140°
2026-05-06 20:43 38.20032 20.50480 2722 ft 136 kts 141°
2026-05-06 20:43 38.19310 20.51284 2717 ft 138 kts 141°
2026-05-06 20:43 38.18564 20.52079 2734 ft 139 kts 145°
2026-05-06 20:44 38.17786 20.52780 2738 ft 138 kts 149°
2026-05-06 20:44 38.16957 20.53415 2663 ft 140 kts 153°
2026-05-06 20:44 38.16097 20.54005 2639 ft 139 kts 155°
2026-05-06 20:44 38.15200 20.54312 2435 ft 124 kts 176°
2026-05-06 20:45 38.14302 20.54382 1519 ft 140 kts 180°
2026-05-06 20:45 38.13618 20.54322 1377 ft 85 kts 197°
2026-05-06 20:45 38.13080 20.54128 1117 ft 79 kts 208°
2026-05-06 20:46 38.12576 20.53794 976 ft 85 kts 210°
2026-05-06 20:46 38.12107 20.53319 816 ft 87 kts 223°
2026-05-06 20:46 38.11667 20.52811 674 ft 76 kts 228°
2026-05-06 20:46 38.11321 20.52342 457 ft 74 kts 229°
2026-05-06 20:47 38.10988 20.51818 358 ft 82 kts 237°
2026-05-06 20:47 38.10913 20.51184 215 ft 72 kts 295°
2026-05-06 20:47 38.11234 20.50726 88 ft 73 kts 329°
2026-05-06 20:47 38.11643 20.50345 209 ft 73 kts 320°
2026-05-06 20:48 38.11580 20.49818 258 ft 78 kts 198°
2026-05-06 20:48 38.11105 20.50103 294 ft 77 kts 159°
2026-05-06 20:48 38.10602 20.50493 376 ft 78 kts 128°
2026-05-06 20:48 38.10827 20.50948 222 ft 81 kts 344°
2026-05-06 20:49 38.11278 20.50643 104 ft 72 kts 329°
2026-05-06 20:49 38.11689 20.50295 253 ft 71 kts 328°
2026-05-06 20:49 38.11887 20.49795 281 ft 78 kts 232°
2026-05-06 20:49 38.11384 20.49868 314 ft 77 kts 159°
2026-05-06 20:50 38.10925 20.50231 375 ft 79 kts 147°
2026-05-06 20:50 38.10619 20.50749 322 ft 81 kts 84°
2026-05-06 20:50 38.11053 20.50827 96 ft 74 kts 329°
2026-05-06 20:50 38.11387 20.50566 58 ft 37 kts 327°
2026-05-06 20:51 38.11575 20.50409 61 ft 29 kts 326°
2026-05-06 20:51 38.11710 20.50308 61 ft 18 kts
2026-05-06 20:51 38.11786 20.50350 59 ft 0 kts 29°
2026-05-06 20:51 38.11792 20.50357 62 ft 4 kts 55°
2026-05-06 20:52 38.11802 20.50420 66 ft 9 kts 84°
2026-05-06 20:52 38.11814 20.50457 60 ft 0 kts 54°
2026-05-06 20:53 38.11819 20.50466 62 ft 7 kts 55°
2026-05-06 20:53 38.11827 20.50482 66 ft 0 kts 56°